User: anonymous   Login
Location: Unspecified
(0.0000°N, 0.0000°E)
Time: 15:02:52
(UTC+00:00)
Language:

OFEQ 7 - Orbit

View from above orbital plane
View from above orbital plane
View from above satellite
View from above satellite

Ground track
Ground track

The orbit data is extracted from the following two-line orbital elements,

1 31601U 07025A   18139.84038794 0.00002000  00000-0  79337-4 0    08
2 31601 141.7103 278.2392 0005818  74.0575 285.9417 15.24465130    00
Epoch (UTC): 19 May 2018 20:10:09
Eccentricity: 0.0005818
inclination: 141.7103°
perigee height: 488 km
apogee height: 496 km
right ascension of ascending node: 278.2392°
argument of perigee: 74.0575°
revolutions per day: 15.24465130
mean anomaly at epoch: 285.9417°
orbit number at epoch: 0

The dashed part of the orbit path shows where the satellite is in the earth's shadow,  

DLR